Weather History for Minot AFB, ND

Change the Weather History Date:

Sunday, December 9, 2012

  Actual Average Record
Temperature  
Mean Temperature 0 °F -  
Max Temperature 10 °F 27 °F 41 °F (2001)
Min Temperature -9 °F 10 °F -16 °F (2013)
Degree Days  
Heating Degree Days 64    
Moisture  
Dew Point -4 °F    
Average Humidity 80    
Maximum Humidity 85    
Minimum Humidity 72    
Precipitation  
Precipitation 0.00 in - - ()
Sea Level Pressure  
Sea Level Pressure 30.44 in    
Wind  
Wind Speed 8 mph (West)    
Max Wind Speed 12 mph    
Max Gust Speed -    
Visibility 10 miles    
Events      
Averages and records for this station are not official NWS values.
T = Trace of Precipitation, MM = Missing Value Source: NWS Daily Summary

Daily Weather History Graph

Daily Weather History Graph

Search for Another Location

Airport:

Trip Planner

Search our weather history database for the weather conditions in past years. The results will help you decide how hot, cold, wet, or windy it might be!

Date:

Astronomy

Dec. 09, 2012 Rise Set
Actual Time 8:25 AM CST 4:50 PM CST
Civil Twilight 7:48 AM CST 5:27 PM CST
Nautical Twilight 7:09 AM CST 6:06 PM CST
Astronomical Twilight 6:31 AM CST 6:44 PM CST
Moon 3:45 AM CST (12/9) 2:11 PM CST (12/9)
Length of Visible Light 9h 38m
Length of Day
8h 25m
Waning Crescent, 18% of the Moon is Illuminated
Dec 9
Waning Crescent
Dec 13
New
Dec 19
First Quarter
Dec 28
Full
Jan 4
Last Quarter

Hourly Weather History & Observations

Time (CST) Temp. Windchill Dew Point Humidity Pressure Visibility Wind Dir Wind Speed Gust Speed Precip Events Conditions
12:55 AM -2.4 °F -18.2 °F -6.9 °F 81% 30.40 in 10.0 mi NNW 9.2 mph - N/A   Clear
1:55 AM -2.7 °F -17.5 °F -7.4 °F 80% 30.41 in 10.0 mi NNW 8.1 mph - N/A   Clear
2:55 AM -2.7 °F -19.6 °F -7.2 °F 81% 30.44 in 10.0 mi NNW 10.4 mph - N/A   Clear
3:55 AM -8.1 °F -26.3 °F -12.5 °F 81% 30.46 in 10.0 mi NW 10.4 mph - N/A   Clear
4:55 AM -7.6 °F -25.7 °F -11.9 °F 81% 30.48 in 10.0 mi NW 10.4 mph - N/A   Clear
5:12 AM -7.6 °F -26.6 °F -13.0 °F 77% 30.49 in 10.0 mi NW 11.5 mph - N/A   Mostly Cloudy
5:51 AM -5.8 °F -23.4 °F -11.2 °F 77% 30.50 in 10.0 mi NW 10.4 mph - N/A   Scattered Clouds
5:55 AM -6.7 °F -24.5 °F -11.0 °F 81% 30.50 in 10.0 mi NW 10.4 mph - N/A   Mostly Cloudy
6:04 AM -7.6 °F -25.7 °F -11.2 °F 84% 30.51 in 10.0 mi NW 10.4 mph - N/A   Scattered Clouds
6:18 AM -9.4 °F -27.9 °F -13.0 °F 84% 30.51 in 10.0 mi NW 10.4 mph - N/A   Mostly Cloudy
6:26 AM -9.4 °F -28.9 °F -13.0 °F 84% 30.51 in 10.0 mi NW 11.5 mph - N/A   Mostly Cloudy
6:30 AM -7.6 °F -26.6 °F -13.0 °F 77% 30.51 in 10.0 mi NW 11.5 mph - N/A   Mostly Cloudy
6:49 AM -5.8 °F -23.4 °F -11.2 °F 77% 30.52 in 10.0 mi NW 10.4 mph - N/A   Overcast
6:55 AM -6.5 °F -24.3 °F -10.7 °F 82% 30.52 in 10.0 mi NW 10.4 mph - N/A   Overcast
7:55 AM -0.4 °F -16.7 °F -4.7 °F 82% 30.53 in 10.0 mi NW 10.4 mph - N/A   Overcast
8:55 AM 0.1 °F -15.1 °F -3.3 °F 85% 30.53 in 10.0 mi WNW 9.2 mph - N/A   Overcast
9:08 AM -0.4 °F -13.4 °F -4.0 °F 85% 30.53 in 10.0 mi WNW 6.9 mph - N/A   Overcast
9:23 AM -0.4 °F -10.4 °F -4.0 °F 85% 30.54 in 10.0 mi WNW 4.6 mph - N/A   Overcast
9:24 AM -0.4 °F -10.4 °F -4.0 °F 85% 30.54 in 10.0 mi WNW 4.6 mph - N/A   Overcast
9:47 AM -0.4 °F - -4.0 °F 85% 30.54 in 9.0 mi Calm Calm - N/A   Overcast
9:55 AM 0.1 °F - -4.0 °F 83% 30.54 in 9.0 mi Calm Calm - N/A   Overcast
9:58 AM -0.4 °F - -4.0 °F 85% 30.54 in 10.0 mi Calm Calm - N/A   Overcast
10:24 AM 1.4 °F - -2.2 °F 85% 30.53 in 10.0 mi Calm Calm - N/A   Scattered Clouds
10:55 AM 2.8 °F -6.6 °F -1.1 °F 84% 30.53 in 10.0 mi West 4.6 mph - N/A   Clear
11:55 AM 5.5 °F -7.4 °F 0.9 °F 81% 30.50 in 10.0 mi West 8.1 mph - N/A   Clear
12:55 PM 7.9 °F -3.5 °F 2.1 °F 77% 30.47 in 10.0 mi West 6.9 mph - N/A   Clear
1:55 PM 10.9 °F 0.2 °F 3.4 °F 72% 30.43 in 10.0 mi SW 6.9 mph - N/A   Clear
2:55 PM 9.9 °F -1.1 °F 2.5 °F 72% 30.41 in 10.0 mi WSW 6.9 mph - N/A   Mostly Cloudy
3:10 PM 8.6 °F -2.6 °F 3.2 °F 79% 30.41 in 10.0 mi WSW 6.9 mph - N/A   Overcast
3:38 PM 10.4 °F -0.4 °F 3.2 °F 73% 30.41 in 10.0 mi WSW 6.9 mph - N/A   Overcast
3:55 PM 10.8 °F 0.0 °F 3.7 °F 73% 30.40 in 10.0 mi West 6.9 mph - N/A   Overcast
4:03 PM 10.4 °F 0.8 °F 3.2 °F 73% 30.40 in 10.0 mi WSW 5.8 mph - N/A   Overcast
4:41 PM 10.4 °F 0.8 °F 3.2 °F 73% 30.38 in 10.0 mi SW 5.8 mph - N/A   Overcast
4:55 PM 10.0 °F 0.4 °F 3.9 °F 76% 30.38 in 10.0 mi WSW 5.8 mph - N/A   Overcast
5:55 PM 8.1 °F -4.3 °F 1.8 °F 75% 30.33 in 10.0 mi SSW 8.1 mph - N/A   Mostly Cloudy
6:55 PM 1.8 °F -14.0 °F -3.1 °F 80% 30.31 in 10.0 mi SW 10.4 mph - N/A   Clear
7:55 PM 1.4 °F -14.5 °F -3.1 °F 81% 30.28 in 10.0 mi SW 10.4 mph - N/A   Clear
8:55 PM 0.9 °F -16.0 °F -2.9 °F 84% 30.23 in 10.0 mi SSW 11.5 mph - N/A   Partly Cloudy
9:55 PM 0.9 °F -15.1 °F -3.1 °F 83% 30.19 in 10.0 mi South 10.4 mph - N/A   Clear
10:55 PM -2.4 °F -19.2 °F -5.8 °F 85% 30.15 in 10.0 mi South 10.4 mph - N/A   Clear
11:55 PM -2.7 °F -17.5 °F -6.3 °F 85% 30.10 in 10.0 mi South 8.1 mph - N/A   Clear